• en Belgique
  • Liste des pays
  • À 7 jours
  • Température de l'eau
  • Carte satellitaire
  • Carte météo
  • Widgets météo
  • user-avatar
    Se connecter

    Météo par heure à Kalgoorlie

    Ce jour, 18 Août, Vendredi

    Heure Température Précipitation Vent Pression Humidité
    00:00 +10°C° 0 mm 3 m/s 733 mmHg 36%
    01:00 +10°C° 0 mm 3 m/s 733 mmHg 36%
    02:00 +10°C° 0 mm 3 m/s 732 mmHg 37%
    03:00 +8°C° 0 mm 4 m/s 732 mmHg 38%
    04:00 +8°C° 0 mm 4 m/s 733 mmHg 39%
    05:00 +8°C° 0 mm 4 m/s 733 mmHg 40%
    06:00 +8°C° 0 mm 5 m/s 733 mmHg 39%
    07:00 +9°C° 0 mm 6 m/s 733 mmHg 37%
    08:00 +10°C° 0 mm 7 m/s 733 mmHg 36%
    09:00 +12°C° 0 mm 8 m/s 733 mmHg 33%
    10:00 +15°C° 0 mm 8 m/s 733 mmHg 31%
    11:00 +17°C° 0 mm 8 m/s 732 mmHg 28%
    12:00 +18°C° 0 mm 8 m/s 732 mmHg 27%
    13:00 +21°C° 0 mm 8 m/s 731 mmHg 26%
    14:00 +22°C° 0 mm 7 m/s 731 mmHg 24%
    15:00 +21°C° 0 mm 6 m/s 731 mmHg 25%
    16:00 +21°C° 0 mm 6 m/s 730 mmHg 26%
    17:00 +21°C° 0 mm 5 m/s 730 mmHg 27%
    18:00 +20°C° 0 mm 6 m/s 730 mmHg 26%
    19:00 +18°C° 0 mm 7 m/s 730 mmHg 26%
    20:00 +17°C° 0 mm 8 m/s 730 mmHg 25%
    21:00 +17°C° 0 mm 9 m/s 730 mmHg 24%
    22:00 +17°C° 0 mm 10 m/s 729 mmHg 23%
    23:00 +17°C° 0 mm 11 m/s 729 mmHg 21%

    Demain, 19 Août, Samedi

    Heure Température Précipitation Vent Pression Humidité
    00:00 +17°C° 0 mm 10 m/s 729 mmHg 21%
    01:00 +17°C° 0 mm 9 m/s 728 mmHg 21%
    02:00 +17°C° 0 mm 9 m/s 728 mmHg 21%
    03:00 +17°C° 0 mm 8 m/s 728 mmHg 22%
    04:00 +17°C° 0 mm 7 m/s 728 mmHg 23%
    05:00 +17°C° 0 mm 6 m/s 728 mmHg 24%
    06:00 +16°C° 0 mm 6 m/s 728 mmHg 26%
    07:00 +16°C° 0 mm 5 m/s 728 mmHg 28%
    08:00 +16°C° 0 mm 5 m/s 728 mmHg 29%
    09:00 +16°C° 0,1 mm 5 m/s 728 mmHg 36%
    10:00 +17°C° 0,1 mm 5 m/s 728 mmHg 44%
    11:00 +17°C° 0,1 mm 5 m/s 728 mmHg 51%
    12:00 +17°C° 0,1 mm 4 m/s 728 mmHg 52%
    13:00 +17°C° 0,1 mm 4 m/s 727 mmHg 54%
    14:00 +17°C° 0,1 mm 4 m/s 727 mmHg 56%
    15:00 +16°C° 0 mm 5 m/s 727 mmHg 54%
    16:00 +16°C° 0 mm 5 m/s 727 mmHg 53%
    17:00 +16°C° 0 mm 6 m/s 727 mmHg 51%
    18:00 +15°C° 0 mm 6 m/s 728 mmHg 53%
    19:00 +14°C° 0 mm 6 m/s 728 mmHg 55%
    20:00 +13°C° 0 mm 6 m/s 729 mmHg 57%
    21:00 +11°C° 0 mm 6 m/s 729 mmHg 59%
    22:00 +11°C° 0 mm 6 m/s 729 mmHg 62%
    23:00 +10°C° 0 mm 6 m/s 729 mmHg 64%

    Après-demain, 20 Août, Dimanche

    Heure Température Précipitation Vent Pression Humidité
    00:00 +9°C° 0 mm 6 m/s 729 mmHg 67%
    01:00 +9°C° 0 mm 7 m/s 729 mmHg 70%
    02:00 +8°C° 0 mm 7 m/s 729 mmHg 74%
    03:00 +7°C° 0 mm 8 m/s 729 mmHg 77%
    04:00 +6°C° 0 mm 8 m/s 730 mmHg 79%
    05:00 +6°C° 0 mm 8 m/s 730 mmHg 82%
    06:00 +7°C° 0 mm 8 m/s 730 mmHg 80%
    07:00 +8°C° 0 mm 9 m/s 731 mmHg 77%
    08:00 +10°C° 0 mm 9 m/s 731 mmHg 74%
    09:00 +11°C° 0 mm 9 m/s 732 mmHg 71%
    10:00 +12°C° 0 mm 9 m/s 732 mmHg 67%
    11:00 +13°C° 0 mm 9 m/s 732 mmHg 64%
    12:00 +13°C° 0 mm 9 m/s 732 mmHg 61%
    13:00 +15°C° 0 mm 9 m/s 732 mmHg 58%
    14:00 +15°C° 0 mm 9 m/s 732 mmHg 55%
    15:00 +15°C° 0 mm 8 m/s 732 mmHg 56%
    16:00 +15°C° 0 mm 7 m/s 732 mmHg 56%
    17:00 +14°C° 0 mm 6 m/s 732 mmHg 57%
    18:00 +13°C° 0 mm 5 m/s 733 mmHg 63%
    19:00 +12°C° 0 mm 4 m/s 733 mmHg 68%
    20:00 +11°C° 0 mm 3 m/s 734 mmHg 73%
    21:00 +11°C° 0 mm 3 m/s 734 mmHg 76%
    22:00 +10°C° 0 mm 3 m/s 734 mmHg 79%
    23:00 +10°C° 0 mm 3 m/s 734 mmHg 82%

    21 Août, Lundi

    Heure Température Précipitation Vent Pression Humidité
    00:00 +9°C° 0 mm 2 m/s 734 mmHg 84%
    01:00 +9°C° 0 mm 2 m/s 734 mmHg 87%
    02:00 +8°C° 0 mm 2 m/s 734 mmHg 89%
    03:00 +8°C° 0 mm 2 m/s 734 mmHg 90%
    04:00 +8°C° 0 mm 2 m/s 734 mmHg 91%
    05:00 +8°C° 0 mm 1 m/s 734 mmHg 92%
    06:00 +9°C° 0 mm 1 m/s 734 mmHg 88%
    07:00 +10°C° 0 mm 1 m/s 734 mmHg 84%
    08:00 +11°C° 0 mm 1 m/s 735 mmHg 80%
    09:00 +12°C° 0 mm 1 m/s 734 mmHg 72%
    10:00 +14°C° 0 mm 2 m/s 734 mmHg 64%
    11:00 +15°C° 0 mm 2 m/s 734 mmHg 56%
    12:00 +16°C° 0 mm 2 m/s 733 mmHg 50%
    13:00 +18°C° 0 mm 3 m/s 733 mmHg 44%
    14:00 +19°C° 0 mm 3 m/s 732 mmHg 38%
    15:00 +19°C° 0 mm 3 m/s 732 mmHg 37%
    16:00 +19°C° 0 mm 3 m/s 732 mmHg 36%
    17:00 +19°C° 0 mm 3 m/s 732 mmHg 36%
    18:00 +17°C° 0 mm 2 m/s 733 mmHg 39%
    19:00 +16°C° 0 mm 2 m/s 733 mmHg 42%
    20:00 +15°C° 0 mm 1 m/s 734 mmHg 46%
    21:00 +14°C° 0 mm 2 m/s 734 mmHg 50%
    22:00 +13°C° 0 mm 2 m/s 734 mmHg 54%
    23:00 +11°C° 0 mm 3 m/s 734 mmHg 58%

    22 Août, Mardi

    Heure Température Précipitation Vent Pression Humidité
    00:00 +11°C° 0 mm 3 m/s 734 mmHg 62%
    01:00 +10°C° 0 mm 3 m/s 733 mmHg 66%
    02:00 +10°C° 0 mm 3 m/s 733 mmHg 70%
    03:00 +9°C° 0 mm 3 m/s 733 mmHg 71%
    04:00 +9°C° 0 mm 3 m/s 733 mmHg 72%
    05:00 +9°C° 0 mm 2 m/s 734 mmHg 74%
    06:00 +10°C° 0 mm 2 m/s 734 mmHg 70%
    07:00 +10°C° 0 mm 2 m/s 734 mmHg 66%
    08:00 +12°C° 0 mm 2 m/s 735 mmHg 61%
    09:00 +14°C° 0 mm 2 m/s 735 mmHg 55%
    10:00 +16°C° 0 mm 2 m/s 735 mmHg 49%
    11:00 +18°C° 0 mm 1 m/s 735 mmHg 43%
    12:00 +19°C° 0 mm 1 m/s 734 mmHg 40%
    13:00 +20°C° 0 mm 1 m/s 733 mmHg 37%
    14:00 +21°C° 0 mm 1 m/s 733 mmHg 34%
    15:00 +21°C° 0 mm 1 m/s 733 mmHg 34%
    16:00 +21°C° 0 mm 1 m/s 733 mmHg 33%
    17:00 +21°C° 0 mm 1 m/s 734 mmHg 33%
    18:00 +20°C° 0 mm 1 m/s 734 mmHg 36%
    19:00 +18°C° 0 mm 2 m/s 735 mmHg 38%
    20:00 +16°C° 0 mm 2 m/s 735 mmHg 41%
    21:00 +16°C° 0 mm 2 m/s 735 mmHg 42%
    22:00 +14°C° 0 mm 3 m/s 735 mmHg 44%
    23:00 +14°C° 0 mm 3 m/s 735 mmHg 45%

    23 Août, Mercredi

    Heure Température Précipitation Vent Pression Humidité
    00:00 +13°C° 0 mm 3 m/s 735 mmHg 47%
    01:00 +13°C° 0 mm 3 m/s 735 mmHg 49%
    02:00 +12°C° 0 mm 4 m/s 735 mmHg 50%
    03:00 +11°C° 0 mm 4 m/s 735 mmHg 54%
    04:00 +11°C° 0 mm 4 m/s 735 mmHg 58%
    05:00 +10°C° 0 mm 4 m/s 735 mmHg 61%
    06:00 +10°C° 0 mm 5 m/s 736 mmHg 62%
    07:00 +12°C° 0 mm 5 m/s 736 mmHg 62%
    08:00 +12°C° 0 mm 5 m/s 736 mmHg 63%
    09:00 +14°C° 0 mm 5 m/s 736 mmHg 54%
    10:00 +17°C° 0 mm 5 m/s 736 mmHg 45%
    11:00 +20°C° 0 mm 5 m/s 736 mmHg 37%
    12:00 +21°C° 0 mm 5 m/s 736 mmHg 34%
    13:00 +21°C° 0 mm 4 m/s 735 mmHg 32%
    14:00 +22°C° 0 mm 4 m/s 735 mmHg 29%
    15:00 +22°C° 0 mm 4 m/s 735 mmHg 30%
    16:00 +21°C° 0 mm 4 m/s 735 mmHg 30%
    17:00 +21°C° 0 mm 4 m/s 735 mmHg 31%
    18:00 +20°C° 0 mm 4 m/s 736 mmHg 33%
    19:00 +19°C° 0 mm 4 m/s 736 mmHg 36%
    20:00 +18°C° 0 mm 4 m/s 736 mmHg 38%
    21:00 +17°C° 0 mm 5 m/s 736 mmHg 40%
    22:00 +16°C° 0 mm 5 m/s 736 mmHg 42%
    23:00 +16°C° 0 mm 5 m/s 736 mmHg 44%
    Voir plus